DW7210 Weather Reports


time (UTC)temp
C
wind
direction
speed
KPH
gust
KPH
rain 1hr
cm
rain 24hr
cm
rain mn
cm
humidity
%
barometer
mb
20260506103436 13 45 4.8 8.0 0.00 0.00 0.00 43 1014.5
20260506102416 13 0 3.2 6.4 0.00 0.00 0.00 43 1014.4
20260506101416 13 45 1.6 4.8 0.00 0.00 0.00 43 1014.6
20260506100416 14 0 4.8 8.0 0.00 0.00 0.00 42 1014.6
20260506095416 14 23 1.6 4.8 0.00 0.00 0.00 42 1014.6
20260506094436 14 23 3.2 4.8 0.00 0.00 0.00 41 1014.4
20260506093416 15 0 1.6 4.8 0.00 0.00 0.00 40 1014.4
20260506092416 15 315 8.0 14.5 0.00 0.00 0.00 39 1014.6
20260506091416 15 293 6.4 8.0 0.00 0.00 0.00 38 1014.1
20260506090416 16 315 4.8 8.0 0.00 0.00 0.00 38 1014.0
20260506085416 16 293 8.0 14.5 0.00 0.00 0.00 37 1014.2
20260506084416 16 315 9.7 19.3 0.00 0.00 0.00 36 1013.9
20260506083436 16 293 6.4 8.0 0.00 0.00 0.00 35 1013.9
20260506082436 16 293 6.4 11.3 0.00 0.00 0.00 33 1014.2
20260506081416 16 315 9.7 16.1 0.00 0.00 0.00 31 1014.2
20260506080416 17 315 3.2 8.0 0.00 0.00 0.00 30 1014.3
20260506073416 16 0.0 0.0 0.00 0.00 0.00 30 1014.3
20260506072416 16 0.0 0.0 0.00 0.00 0.00 30 1013.8
20260506071416 16 0.0 0.0 0.00 0.00 0.00 29 1013.7
20260506070456 17 0.0 0.0 0.00 0.00 0.00 29 1014.1
20260506062416 18 225 4.8 8.0 0.00 0.00 0.00 26 1014.1
20260506061416 18 203 6.4 11.3 0.00 0.00 0.00 26 1014.3
20260506060416 18 225 6.4 11.3 0.00 0.00 0.00 25 1014.3
20260506051416 19 225 3.2 6.4 0.00 0.00 0.00 24 1013.3
20260506050416 20 225 4.8 14.5 0.00 0.00 0.00 24 1013.3
20260506044416 20 225 6.4 16.1 0.00 0.00 0.00 22 1013.5
20260506043416 20 225 8.0 16.1 0.00 0.00 0.00 22 1013.3
20260506042436 20 248 8.0 17.7 0.00 0.00 0.00 21 1013.3
20260506041416 20 225 6.4 14.5 0.00 0.00 0.00 21 1012.4
20260506040416 20 203 3.2 9.7 0.00 0.00 0.00 20 1012.6
20260506035417 20 0.0 0.0 0.00 0.00 0.00 19 1012.3
20260506034416 20 293 4.8 9.7 0.00 0.00 0.00 19 1011.9
20260506033416 21 293 6.4 16.1 0.00 0.00 0.00 19 1012.0
20260506032416 21 248 6.4 14.5 0.00 0.00 0.00 20 1011.7
20260506031416 21 225 8.0 14.5 0.00 0.00 0.00 20 1011.4
20260506030436 21 293 8.0 19.3 0.00 0.00 0.00 20 1011.2
20260506025416 21 225 9.7 19.3 0.00 0.00 0.00 20 1011.1
20260506024416 21 248 1.6 4.8 0.00 0.00 0.00 20 1011.0
20260506023436 22 225 4.8 30.6 0.00 0.00 0.00 21 1010.8
20260506022416 22 225 6.4 12.9 0.00 0.00 0.00 22 1010.7
20260506021416 22 225 8.0 17.7 0.00 0.00 0.00 23 1010.5
20260506020436 22 248 6.4 16.1 0.00 0.00 0.00 22 1010.4
20260506015416 22 248 8.0 19.3 0.00 0.00 0.00 22 1010.3
20260506014416 22 248 9.7 20.9 0.00 0.00 0.00 21 1010.1
20260506013416 22 225 9.7 17.7 0.00 0.00 0.00 21 1010.0
20260506012416 23 248 1.6 8.0 0.00 0.00 0.00 21 1010.1
20260506011416 23 225 4.8 9.7 0.00 0.00 0.00 21 1010.2
20260506010416 23 248 6.4 11.3 0.00 0.00 0.00 22 1010.0
20260506005416 23 293 6.4 9.7 0.00 0.00 0.00 23 1010.1
20260506004416 23 225 9.7 24.1 0.00 0.00 0.00 23 1010.0
20260506003436 23 270 8.0 14.5 0.00 0.00 0.00 24 1010.0
20260506002436 23 293 9.7 25.7 0.00 0.00 0.00 24 1010.0
20260506001416 23 248 8.0 16.1 0.00 0.00 0.00 24 1010.4
20260506000416 23 293 8.0 16.1 0.00 0.00 0.00 26 1010.2
20260505235416 23 270 8.0 16.1 0.00 0.00 0.00 27 1010.3
20260505234416 23 270 3.2 8.0 0.00 0.00 0.00 28 1010.2
20260505233416 23 225 3.2 11.3 0.00 0.00 0.00 28 1010.3
20260505232416 23 293 8.0 19.3 0.00 0.00 0.00 28 1010.2
20260505231416 23 315 6.4 11.3 0.00 0.00 0.00 28 1010.2
20260505230416 23 248 4.8 11.3 0.00 0.00 0.00 30 1010.2
20260505225416 23 293 3.2 6.4 0.00 0.00 0.00 31 1010.5
20260505224416 23 225 6.4 16.1 0.00 0.00 0.00 31 1010.9
20260505223416 23 225 4.8 11.3 0.00 0.00 0.00 33 1011.0
20260505222416 23 293 8.0 12.9 0.00 0.00 0.00 33 1010.9
20260505221416 23 293 6.4 16.1 0.00 0.00 0.00 33 1011.3
20260505220416 23 315 11.3 19.3 0.00 0.00 0.00 33 1011.4
20260505215416 23 293 17.7 25.7 0.00 0.00 0.00 32 1011.2
20260505214416 24 293 4.8 8.0 0.00 0.00 0.00 32 1011.8
20260505213416 23 293 16.1 30.6 0.00 0.00 0.00 32 1012.1
20260505212416 23 293 11.3 29.0 0.00 0.00 0.00 33 1012.1
20260505211436 23 315 17.7 29.0 0.00 0.00 0.00 32 1012.3
20260505210416 22 315 12.9 24.1 0.00 0.00 0.00 36 1012.3
20260505205416 22 338 9.7 12.9 0.00 0.00 0.00 37 1012.4
20260505204416 22 293 9.7 17.7 0.00 0.00 0.00 36 1012.3
20260505203416 22 225 6.4 11.3 0.00 0.00 0.00 36 1012.5
20260505202416 22 293 6.4 9.7 0.00 0.00 0.00 36 1012.7
20260505201416 22 293 8.0 11.3 0.00 0.00 0.00 36 1013.0
20260505200416 21 315 6.4 11.3 0.00 0.00 0.00 38 1012.7
20260505195416 22 293 9.7 17.7 0.00 0.00 0.00 37 1013.3
20260505194416 21 293 6.4 14.5 0.00 0.00 0.00 39 1013.6
20260505193416 21 293 9.7 16.1 0.00 0.00 0.00 38 1013.4
20260505192416 22 315 11.3 19.3 0.00 0.00 0.00 36 1013.7
20260505191416 21 225 9.7 22.5 0.00 0.00 0.00 37 1013.8
20260505190456 21 293 12.9 25.7 0.00 0.00 0.00 36 1013.9
20260505185436 21 293 16.1 29.0 0.00 0.00 0.00 34 1013.8
20260505184416 21 293 11.3 20.9 0.00 0.00 0.00 34 1014.1
20260505183436 22 248 4.8 11.3 0.00 0.00 0.00 33 1013.9
20260505182416 21 293 9.7 14.5 0.00 0.00 0.00 32 1013.9
20260505181416 22 248 6.4 14.5 0.00 0.00 0.00 32 1014.3
20260505180416 22 225 6.4 12.9 0.00 0.00 0.00 31 1014.0
20260505175416 22 293 8.0 14.5 0.00 0.00 0.00 31 1013.9
20260505174416 22 270 6.4 9.7 0.00 0.00 0.00 34 1014.4
20260505173416 22 293 9.7 14.5 0.00 0.00 0.00 35 1014.4
20260505172416 21 248 8.0 12.9 0.00 0.00 0.00 37 1014.1
20260505171416 21 225 11.3 20.9 0.00 0.00 0.00 37 1014.2
20260505170416 21 315 9.7 14.5 0.00 0.00 0.00 37 1014.2
20260505165416 20 293 6.4 11.3 0.00 0.00 0.00 40 1013.9
20260505164416 18 315 3.2 4.8 0.00 0.00 0.00 43 1013.9
20260505163416 18 338 3.2 6.4 0.00 0.00 0.00 42 1014.1
20260505162416 19 315 8.0 12.9 0.00 0.00 0.00 41 1014.0
20260505161416 20 0.0 1.6 0.00 0.00 0.00 42 1014.0
20260505160416 18 0.0 0.0 0.00 0.00 0.00 43 1014.1
20260505152436 17 338 3.2 6.4 0.00 0.00 0.00 46 1013.6
20260505151416 17 45 4.8 6.4 0.00 0.00 0.00 48 1013.6
20260505150416 16 270 1.6 4.8 0.00 0.00 0.00 49 1013.2
20260505140436 15 338 3.2 8.0 0.00 0.00 0.00 54 1013.6
20260505124416 15 338 6.4 9.7 0.00 0.00 0.00 51 1013.3
20260505123416 15 338 6.4 14.5 0.00 0.00 0.00 51 1013.0
20260505122416 15 338 6.4 11.3 0.00 0.00 0.00 50 1013.2
20260505121416 16 315 4.8 8.0 0.00 0.00 0.00 50 1013.0
20260505120416 16 293 3.2 8.0 0.00 0.00 0.00 49 1013.2
20260505115416 16 315 6.4 9.7 0.00 0.00 0.00 49 1013.2
20260505114416 16 315 4.8 8.0 0.00 0.00 0.00 48 1013.2
20260505113416 16 315 4.8 8.0 0.00 0.00 0.00 48 1013.2
20260505112416 16 338 11.3 24.1 0.00 0.00 0.00 48 1013.2
20260505111416 16 315 9.7 17.7 0.00 0.00 0.00 47 1013.4
20260505110416 16 315 8.0 12.9 0.00 0.00 0.00 47 1013.3